TimeEDT,TemperatureF,Dew PointF,Humidity,Sea Level PressureIn,VisibilityMPH,Wind Direction,Wind SpeedMPH,Gust SpeedMPH,PrecipitationIn,Events,Conditions,WindDirDegrees,DateUTC
12:33 AM,55.4,55.4,100,29.59,6.0,South,4.6,-,0.00,,Overcast,180,2013-06-12 04:33:00
12:42 AM,55.4,55.4,100,29.59,6.0,South,3.5,-,0.00,,Overcast,190,2013-06-12 04:42:00
12:54 AM,55.9,55.0,97,29.59,5.0,South,4.6,-,0.00,,Overcast,190,2013-06-12 04:54:00
1:54 AM,57.0,55.9,96,29.57,3.0,North,3.5,-,0.02,Rain,Light Rain,10,2013-06-12 05:54:00
2:13 AM,57.2,55.4,94,29.57,3.0,NNE,3.5,-,0.00,Rain,Light Rain,20,2013-06-12 06:13:00
2:54 AM,57.0,55.9,96,29.57,3.0,NE,3.5,-,0.01,,Overcast,40,2013-06-12 06:54:00
3:54 AM,57.0,55.9,96,29.57,3.0,NW,3.5,-,0.00,Rain,Light Rain,310,2013-06-12 07:54:00
4:37 AM,57.2,55.4,94,29.58,5.0,Calm,Calm,-,0.01,Rain,Light Rain,0,2013-06-12 08:37:00
4:54 AM,57.0,55.9,96,29.58,6.0,North,4.6,-,0.01,,Overcast,360,2013-06-12 08:54:00
5:25 AM,57.2,55.4,94,29.59,3.0,NNW,5.8,-,0.00,Rain,Light Rain,340,2013-06-12 09:25:00
5:40 AM,57.2,55.4,94,29.60,2.5,NNW,9.2,-,0.01,Rain,Light Rain,330,2013-06-12 09:40:00
5:54 AM,57.0,55.0,93,29.60,3.0,NNW,8.1,-,0.01,Rain,Light Rain,330,2013-06-12 09:54:00
6:06 AM,57.2,55.4,94,29.60,3.0,NNW,8.1,-,0.01,Rain,Light Rain,330,2013-06-12 10:06:00
6:54 AM,57.9,55.0,90,29.61,3.0,WNW,8.1,-,0.01,,Overcast,290,2013-06-12 10:54:00
7:54 AM,61.0,55.9,83,29.60,3.0,WNW,11.5,-,N/A,,Mostly Cloudy,290,2013-06-12 11:54:00
8:29 AM,60.8,55.4,82,29.60,10.0,West,13.8,23.0,N/A,,Mostly Cloudy,280,2013-06-12 12:29:00
8:54 AM,62.1,55.9,80,29.60,10.0,West,15.0,19.6,N/A,,Mostly Cloudy,280,2013-06-12 12:54:00
9:54 AM,63.0,53.1,70,29.61,10.0,WNW,23.0,29.9,N/A,,Mostly Cloudy,300,2013-06-12 13:54:00
10:03 AM,64.4,53.6,68,29.61,10.0,WNW,21.9,29.9,N/A,,Mostly Cloudy,300,2013-06-12 14:03:00
10:54 AM,64.9,52.0,63,29.62,10.0,WNW,16.1,32.2,N/A,,Mostly Cloudy,300,2013-06-12 14:54:00
11:54 AM,66.0,50.0,56,29.62,10.0,NW,21.9,36.8,N/A,,Mostly Cloudy,310,2013-06-12 15:54:00
12:54 PM,69.1,51.1,53,29.64,10.0,NW,21.9,34.5,N/A,,Mostly Cloudy,310,2013-06-12 16:54:00
1:54 PM,69.1,50.0,51,29.64,10.0,NW,20.7,33.4,N/A,,Mostly Cloudy,320,2013-06-12 17:54:00
2:54 PM,71.1,52.0,51,29.65,10.0,NW,17.3,29.9,N/A,,Mostly Cloudy,320,2013-06-12 18:54:00
3:54 PM,70.0,51.1,51,29.67,10.0,NNW,16.1,28.8,N/A,,Overcast,330,2013-06-12 19:54:00
4:54 PM,68.0,54.0,61,29.70,10.0,NNW,12.7,18.4,0.00,,Overcast,340,2013-06-12 20:54:00
5:54 PM,66.9,53.1,61,29.71,10.0,NNW,12.7,19.6,0.00,,Overcast,330,2013-06-12 21:54:00
6:54 PM,64.0,55.9,75,29.73,10.0,North,8.1,-,0.00,,Mostly Cloudy,360,2013-06-12 22:54:00
7:54 PM,63.0,53.1,70,29.76,10.0,NNW,10.4,-,0.01,Rain,Light Rain,330,2013-06-12 23:54:00
8:54 PM,64.9,53.1,65,29.78,10.0,NNW,8.1,-,0.00,,Overcast,330,2013-06-13 00:54:00
9:54 PM,64.0,54.0,70,29.81,10.0,NNW,5.8,-,N/A,,Overcast,340,2013-06-13 01:54:00
10:54 PM,64.9,51.1,61,29.81,10.0,NNW,10.4,16.1,N/A,,Overcast,340,2013-06-13 02:54:00
11:54 PM,63.0,51.1,65,29.80,10.0,NW,5.8,-,N/A,,Partly Cloudy,310,2013-06-13 03:54:00